Aérodrome :
LOGIN :

S'inscrire | Disclaimer

   EN    FR    IT 

 










Légende :    VFR   VFR Marginal   IFR   IFR Intensif   IFR Très Intensif
Visi : 
Plafond : 
>= 8 km
>= 3000ft
5 à 8 km
1000 à 3000 ft
1500m à 5 km
500 à 1000 ft
800 à 1500m
200 à 500 ft
< 800m
< 200 ft
Symboles :   Orages  Brouillard  Fortes neiges  Fortes précipitations  Vent > 20 kt
SIGMETs :   Divers  Orages  Givrage  Turbulence  Onde Orograph.  Cendres Volcan.







- Altitude de l'aérodrome : 598 ft
- Code IATA : BQH
- Voir les cartes d'approche


EGKB - Biggin Hill

DERNIER METAR :
  • 121220Z 12006KT 100V160 9999 SCT026 05/01 Q1022

METARs EXPIRÉS :
  • 121150Z 13009KT 9999 SCT027 05/02 Q1022
  • 121120Z 12008KT 100V160 9999 SCT025 05/02 Q1022
  • 121050Z 12008KT 9999 FEW017 05/03 Q1022
  • 121020Z 11006KT 080V140 9999 SCT015 05/04 Q1022
  • 120950Z 12005KT 090V150 9999 FEW020 SCT045 05/04 Q1023

TAF TAF EGKB
Valide du 12 à 12h jusqu'au 12 à 21h UTC


121058Z 1212/1221 13010KT 9999 SCT025
Pas de NOTAMs connus pour ce terrain.



MET'MAP, la Météo Aéronautique d'un coup d'oeil ! - Copyright ORBIFLY Décembre 2007 - Disclaimer

ORBIFLY MET'MAP TEAM :

Programmation & Développement : Alexandra Zaïnal
Conception & Développement : Baudouin d'Aumeries
Co-Programmation & Développement : Marc-Olivier Méhu
Soutien technique & logistique : Manuel Goepfert

Contact : metmap@orbifly.com




SOURCES & CREDITS :

   NOAA